Location: Jesenik
(50.2330°N, 17.2000°E)
Time: 21:29:56
(UTC+01:00)

ISS - Visible Passes

Search period start: 09 December 2018 00:00
Search period end: 19 December 2018 00:00
Orbit: 401 x 408 km, 51.6° (Epoch: 10 December)

Date Brightness Start Highest point End Pass type
(mag) Time Alt. Az. Time Alt. Az. Time Alt. Az.
09 Dec -3.9 16:46:23 10° WNW 16:49:40 89° N 16:52:56 10° ESE visible
09 Dec -1.9 18:23:06 10° W 18:25:52 26° SW 18:25:52 26° SW visible
10 Dec -2.6 17:30:43 10° W 17:33:49 40° SSW 17:36:18 14° SE visible
11 Dec -3.3 16:38:27 10° WNW 16:41:41 60° SSW 16:44:54 10° ESE visible
11 Dec -0.9 18:15:47 10° WSW 18:17:39 14° SW 18:19:32 10° S visible
12 Dec -1.4 17:23:00 10° W 17:25:38 23° SW 17:28:16 10° SSE visible
13 Dec -2.0 16:30:32 10° W 16:33:33 35° SSW 16:36:33 10° SE visible
14 Dec -0.5 17:15:54 10° WSW 17:17:17 12° SW 17:18:41 10° SSW visible
15 Dec -0.8 16:22:49 10° W 16:25:16 19° SW 16:27:41 10° S visible
